Location: ??
(35.5653°N, 139.6194°E)
Time: 04:40:43
(UTC+00:00)

IRIDIUM 106 - Pass Details

Date: 13 December 2025
Orbit: 776 x 779 km, 86.4° (Epoch: 21 January)

Event Time Altitude Azimuth Distance (km) Brightness Sun altitude
Rises 20:40:27 0° 193° (SSW) 3,246 7.6 -12.4°
Reaches altitude 10° 20:42:51 10° 198° (SSW) 2,323 6.8 -11.9°
Maximum altitude 20:47:55 52° 275° (W) 963 4.5 -11.0°
Drops below altitude 10° 20:53:01 10° 351° (N) 2,337 6.5 -10.0°
Sets 20:55:26 0° 357° (N) 3,269 7.3 -9.5°
